www.pogodaiklimat.ru

Погода и климат >> Архив погоды >> Индия >> Raipur


ПОГОДА в Raipur

  • Прогноз погоды в Raipur
  • Монитор погоды в Raipur
  • Климат города

АРХИВ ПОГОДЫ в Raipur

Время (UTC), дата Ветер
(напр.,м/с)
 
Видим.   Явления Облачность Т
(С)
Тd
(С)
f
(%)
Тe
(С)
Тes
(С)
Комфортность P
(гПа)
Po
(гПа)
Тmin
(С)
Tmax
(С)
R
(мм)
R24
(мм)
S
(см)
21 10.10 штиль 0 4000 м 8/0
[Ci fib]
+19.4 +16.5 83 +21 +21 комфорт 1008.3 938.5
03 11.10 С 2 4000 м 6/4 600 м
[Sc Ac trans Ci fib]
+26.0 +18.8 65 +31 +34 очень
душно
1006.2 1006.0 +23.7
06 11.10 В 3 4000 м 8/4 600 м
[Cu Sc Ac trans Ci fib]
+30.0 +21.0 59 +38 +43 очень
душно
1005.3 1005.0
09 11.10 СВ 3 4000 м 9/6 600 м
[Cb cap Ac trans Ci fib]
+29.6 +20.9 60 +37 +39 очень
душно
1003.0 1003.0
12 11.10 СВ 2 4000 м 9/6 600 м
[Cu Sc Ac trans Ci sp]
+27.0 +21.9 74 +35 +35 очень
душно
1004.2 1004.0 +30.9
15 11.10 В 2 4000 м 8/4 600 м
[Sc Ac trans Ci sp]
+25.4 +21.8 80 +33 +33 очень
душно
1007.1 1007.0
18 11.10 штиль 0 4000 м 5/0
[Ac trans]
+29.4 +14.6 41 +32 +32 душно 1010.1 1010.0
21 11.10 штиль 0 4000 м 4/0
[Ac trans]
+27.0 +20.3 67 +33 +33 очень
душно
1009.8 1000.0
00 12.10 штиль 0 4000 м 4/0
[Ac trans]
+26.0 +22.8 83 +35 +35 очень
душно
1009.9 1000.0
03 12.10 С 2 4000 м 6/1 750 м
[Cu hum Ac trans Ci fib]
+26.2 +21.4 75 +33 +37 очень
душно
1008.4 1008.0 +23.4
06 12.10 С 2 4000 м 6/4 600 м
[Sc diur, vesp Ci fib]
+29.4 +20.7 60 +37 +45 очень
душно
1008.0 1008.0
09 12.10 СВ 2 4000 м 6/5 600 м
[Sc diur, vesp Ci fib]
+31.0 +19.4 50 +37 +41 очень
душно
1005.4 1005.0
12 12.10 С 1 4000 м 5/4 600 м
[Sc diur, vesp]
+29.6 +19.9 56 +36 +36 очень
душно
1006.2 1006.0 +32.0
15 12.10 СВ 1 4000 м 6/4 600 м
[Sc Ac trans]
+26.4 +20.6 70 +33 +33 очень
душно
1009.1 1009.0
18 12.10 штиль 0 3400 м 4/4 1000 м
[]
+31.0 +13.8 35 +32 +32 жарко 1010.0 1010.0
00 13.10 штиль 0 2000 м мгла 4/0
[Ac trans]
+28.4 +26.4 89 +43 +43 опасность
перегрева
1009.6 1000.0
03 13.10 СЗ 1 4000 м ясно +25.6 +20.4 73 +32 +38 очень
душно
1012.2 1012.0 +23.8
06 13.10 СВ 1 4000 м 6/6 600 м
[Sc diur, vesp]
+29.4 +21.0 61 +37 +44 очень
душно
1011.3 1011.0
09 13.10 С 2 4000 м 5/5 600 м
[Sc diur, vesp]
+31.2 +21.1 55 +39 +44 очень
душно
1008.7 1009.0
12 13.10 штиль 0 4000 м 3/0
[Ci fib]
+29.2 +20.4 59 +36 +36 очень
душно
1009.0 1009.0 +31.8
15 13.10 штиль 0 4000 м 3/0
[Ci fib]
+26.6 +21.8 75 +34 +34 очень
душно
1011.1 1011.0
03 14.10 штиль 0 4000 м мгла ясно +26.4 +21.6 75 +34 +41 очень
душно
1013.5 1014.0 +23.5
06 14.10 штиль 0 4000 м мгла 6/6 600 м
[Sc diur, vesp]
+30.4 +20.8 57 +38 +46 очень
душно
1012.4 1012.0
09 14.10 штиль 0 4000 м 4/4 600 м
[Sc diur, vesp]
+32.2 +15.9 38 +35 +43 очень
душно
1009.3 1009.0
12 14.10 СВ 1 4000 м 1/0
[Ci fib]
+30.4 +16.8 44 +34 +34 очень
душно
1009.7 1010.0 +33.1
15 14.10 ЮВ 1 4000 м ясно +26.6 +19.2 64 +32 +32 очень
душно
1010.6 1011.0
21 14.10 штиль 0 60 км 4/0 2000 м
[]
+23.6 +21.2 86 +30 +30 очень
душно
1010.9 1011.0
03 15.10 С 1 4000 м мгла 3/0
[Ci fib]
+25.2 +19.6 71 +31 +36 очень
душно
1014.9 1015.0 +22.1
06 15.10 З 1 4000 м мгла 3/1 750 м
[Cu hum Ci fib]
+31.0 +17.9 46 +35 +51 опасность
солнечного
удара
1013.4 1013.0
09 15.10 штиль 0 4000 м 5/1 600 м
[Sc Ci fib]
+32.2 +18.7 45 +37 +48 очень
душно
1010.6 1011.0
12 15.10 В 1 4000 м 6/0
[Ci fib]
+30.4 +16.4 43 +34 +34 очень
душно
1011.2 1011.0 +33.2
15 15.10 штиль 0 4000 м 1/0
[Ci fib]
+26.2 +20.1 69 +32 +32 очень
душно
1013.4 1013.0
03 16.10 штиль 0 4000 м мгла 1/0
[Ac trans]
+25.0 +20.1 74 +31 +37 очень
душно
1015.6 1016.0 +21.8
06 16.10 штиль 0 4000 м 1/0
[Ci fib]
+31.0 +17.9 46 +35 +56 опасность
солнечного
удара
1013.9 1014.0
09 16.10 ЮЗ 2 4000 м 1/1 900 м
[Cu hum]
+32.6 +16.5 38 +36 +45 очень
душно
1010.7 1011.0
12 16.10 штиль 0 4000 м ясно +30.4 +18.3 48 +35 +35 очень
душно
1010.6 1011.0 +33.2
15 16.10 штиль 0 4000 м ясно +26.4 +19.6 66 +32 +32 очень
душно
1012.9 1013.0
18 16.10 ЮЗ 1 4000 м ясно +27.8 +19.9 62 +34 +34 очень
душно
1011.9 1012.0
21 16.10 штиль 0 3400 м 4/4 1000 м
[]
+25.8 +21.3 76 +33 +33 очень
душно
1011.2 1011.0
00 17.10 0 н/о +24.2 +21.5 85 1011.0 1012.7
03 17.10 ЮВ 1 4000 м мгла 1/0
[Ci fib]
+24.8 +19.9 74 +30 +36 душно 1014.4 1014.0 +21.6
06 17.10 ЮЗ 2 4000 м ясно +31.2 +16.6 42 +35 +51 опасность
солнечного
удара
1012.4 1012.0
09 17.10 З 1 4000 м 3/0
[Ci fib]
+33.2 +16.1 36 +36 +47 очень
душно
1008.5 1009.0
12 17.10 З 1 4000 м 3/0
[Ci fib]
+30.4 +17.2 45 +34 +34 очень
душно
1009.0 1009.0 +33.6
15 17.10 штиль 0 4000 м ясно +27.0 +19.6 64 +33 +33 очень
душно
1011.3 1011.0

 

Местоположение метеостанции Raipur (Chhattisgarh, Индия): широта 21.23 долгота 81.65 высота над уровнем моря 298 м.

В архиве по умолчанию представлена погода в Raipur за последнюю неделю. Архивные данные за месяц целиком и за предыдущие месяцы, начиная с января 2011 года, Вы можете получить, выбрав интересующий диапазон дат из раскрывающегося списка и нажав кнопку "Ввод!".


*Определитесь, кто Вы:
робот инопланетянин человек

Внимание! Время в таблицах - всемирное. Для получения местного времени необходимо прибавить поправку, которая в Raipur равна 5.5 ч.

Смотрите также архив погоды в соседних городах и на ближайших метеорологических станциях:

Погода в Durg (Chhattisgarh, Индия) (39 км)
Погода в Rajnandgaon (Chhattisgarh, Индия) (66 км)
Погода в Bilaspur (Chhattisgarh, Индия) (111 км)
Погода в Raipur Airport (Chhattisgarh, Индия) (111 км)
Погода в Malanjkhand (Madhya Pradesh, Индия) (130 км)
Погода в Gondia (Maharashtra, Индия) (153 км)
Погода в Pendra Road (Chhattisgarh, Индия) (173 км)
Погода в Bramhapuri (Maharashtra, Индия) (200 км)
Погода в Mandla (Madhya Pradesh, Индия) (200 км)
Погода в Titlagarh (Orissa, Индия) (200 км)

Пояснения к столбцам:

Ветер - указаны скорость ветра в м/с - средняя за 10 мин, порывы в срок и между сроками (в фигурных скобках) и направление, откуда дует ветер: С - северный, СВ - северо-восточный, В - восточный, ЮВ - юго-восточный, Ю - южный, ЮЗ - юго-западный, З - западный, СЗ - северо-западный.
Видимость - горизонтальная дальность видимости в метрах или километрах. При видимости от 1 до 10 км при отсутствии осадков обычно наблюдается дымка, при ухудшении видимости до 1 км и менее - туман. В сухую погоду видимость может ухудшаться дымом, пылью или мглою.
Явления - указаны атмосферные явления, наблюдавшиеся в срок или в последний час перед сроком; фигурными скобками обозначены явления, наблюдавшиеся между сроками (за 1-3 часа до срока); квадратными скобками обозначены град или гололедные отложения с указанием их диаметра в мм.
Облачность - указаны через наклонную черту общая и нижняя облачность в баллах и высота нижней границы облаков в метрах; квадратными скобками обозначены формы облаков: Ci - перистые, Cs - перисто-слоистые, Cc - перисто-кучевые, Ac - высококучевые, As - высокослоистые, Sc - слоисто-кучевые, Ns - слоисто-дождевые, Cu - кучевые, Cb - кучево-дождевые. Подробнее классификацию облаков см. в Атласе облаков (PDF).
T - Температура воздуха - температура, измеренная на высоте 2 м над землей.
Td - Температура точки росы - температура, при понижении до которой содержащийся в воздухе водяной пар достигнет насыщения.
f - Относительная влажность воздуха - влажноcть воздуха, измеренная на высоте 2 м над землей.
Te - Эффективная температура - температура, которую ощущает одетый по сезону человек в тени. Характеристика душности погоды. При расчете учитывается влияние влажности воздуха и скорости ветра на теплоощущения человека.
Tes - Эффективная температура на солнце - температура, которую ощущает человек, с поправкой на солнечный нагрев. Характеристика знойности погоды. Зависит от высоты солнца над горизонтом, облачности и скорости ветра. Ночью, в пасмурную погоду, а также при ветре 12 м/с и более поправка равна нулю.
P - Атмосферное давление - приведенное к уровню моря атмосферное давление.
Po - Атмосферное давление - измеренное на уровне метеостанции атмосферное давление.
Tmin - Минимальная температура - минимум температуры воздуха на высоте 2 м над землей.
Tmax - Максимальная температура - максимум температуры воздуха на высоте 2 м над землей.
R - Количество осадков - Количество выпавших осадков за период времени, мм. При наведении курсора мыши на число - период времени, за который выпало указанное количество осадков.
R24 - Количество осадков - Количество выпавших осадков за 24 часа, мм.
S - Снежный покров - Высота снежного покрова, см. При наведении курсора мыши на число - состояние снежного покрова и степень покрытия местности в баллах.